| time (UTC) | temp F | wind direction | speed knots | gust knots | rain 1hr in | rain 24hr in | rain mn in | humidity % | barometer mb |
| 20260906225618 | 98 | 146 | 0.9 | 1.7 | 0.00 | 0.00 | 0.00 | 45 | 1012.1 |
| 20260906225114 | 98 | 150 | 1.7 | 1.7 | 0.00 | 0.00 | 0.00 | 45 | 1011.9 |
| 20260906224609 | 99 | 120 | 2.6 | 2.6 | 0.00 | 0.00 | 0.00 | 44 | 1012.0 |
| 20260906224106 | 98 | 154 | 2.6 | 4.3 | 0.00 | 0.00 | 0.00 | 44 | 1012.2 |
| 20260906223602 | 99 | 195 | 5.2 | 7.0 | 0.00 | 0.00 | 0.00 | 44 | 1012.1 |
| 20260906223100 | 99 | 72 | 0.9 | 0.9 | 0.00 | 0.00 | 0.00 | 44 | 1012.2 |
| 20260906222600 | 99 | 53 | 2.6 | 6.1 | 0.00 | 0.00 | 0.00 | 45 | 1012.2 |
| 20260906222058 | 99 | 205 | 0.9 | 1.7 | 0.00 | 0.00 | 0.00 | 44 | 1012.0 |
| 20260906221556 | 99 | 128 | 4.3 | 5.2 | 0.00 | 0.00 | 0.00 | 44 | 1012.3 |
| 20260906221051 | 100 | 210 | 4.3 | 6.1 | 0.00 | 0.00 | 0.00 | 43 | 1012.2 |
| 20260906220546 | 101 | 73 | 2.6 | 2.6 | 0.00 | 0.00 | 0.00 | 43 | 1012.0 |
| 20260906220042 | 99 | 169 | 0.0 | 0.9 | 0.00 | 0.00 | 0.00 | 44 | 1012.1 |
| 20260906215541 | 100 | 200 | 4.3 | 5.2 | 0.00 | 0.00 | 0.00 | 43 | 1012.2 |
| 20260906215039 | 100 | 218 | 0.0 | 0.0 | 0.00 | 0.00 | 0.00 | 43 | 1012.1 |
| 20260906214538 | 100 | 119 | 2.6 | 4.3 | 0.00 | 0.00 | 0.00 | 43 | 1012.0 |
| 20260906214033 | 100 | 131 | 2.6 | 4.3 | 0.00 | 0.00 | 0.00 | 44 | 1012.1 |
| 20260906213532 | 100 | 172 | 0.0 | 0.0 | 0.00 | 0.00 | 0.00 | 43 | 1012.3 |
| 20260906213027 | 100 | 186 | 2.6 | 2.6 | 0.00 | 0.00 | 0.00 | 43 | 1012.2 |
| 20260906212520 | 100 | 149 | 0.9 | 0.9 | 0.00 | 0.00 | 0.00 | 43 | 1012.3 |
| 20260906212016 | 99 | 227 | 0.9 | 0.9 | 0.00 | 0.00 | 0.00 | 44 | 1012.4 |
| 20260906211510 | 100 | 52 | 0.9 | 0.9 | 0.00 | 0.00 | 0.00 | 43 | 1012.4 |
| 20260906211005 | 100 | 126 | 1.7 | 2.6 | 0.00 | 0.00 | 0.00 | 43 | 1012.7 |
| 20260906210455 | 99 | 44 | 1.7 | 1.7 | 0.00 | 0.00 | 0.00 | 45 | 1012.8 |
| 20260906205954 | 100 | 122 | 2.6 | 4.3 | 0.00 | 0.00 | 0.00 | 43 | 1012.9 |
| 20260906205450 | 101 | 197 | 4.3 | 7.0 | 0.00 | 0.00 | 0.00 | 43 | 1012.8 |
| 20260906204946 | 100 | 221 | 0.9 | 0.9 | 0.00 | 0.00 | 0.00 | 43 | 1013.0 |
| 20260906204445 | 100 | 77 | 0.9 | 1.7 | 0.00 | 0.00 | 0.00 | 43 | 1013.0 |
| 20260906203944 | 100 | 156 | 1.7 | 1.7 | 0.00 | 0.00 | 0.00 | 42 | 1013.1 |
| 20260906203440 | 100 | 199 | 0.9 | 0.9 | 0.00 | 0.00 | 0.00 | 44 | 1013.3 |
| 20260906202938 | 100 | 221 | 0.9 | 0.9 | 0.00 | 0.00 | 0.00 | 44 | 1013.3 |
| 20260906202436 | 100 | 157 | 1.7 | 1.7 | 0.00 | 0.00 | 0.00 | 44 | 1013.3 |
| 20260906201931 | 100 | 150 | 3.5 | 4.3 | 0.00 | 0.00 | 0.00 | 44 | 1013.5 |
| 20260906201425 | 100 | 161 | 1.7 | 1.7 | 0.00 | 0.00 | 0.00 | 43 | 1013.6 |
| 20260906200921 | 100 | 131 | 0.9 | 0.9 | 0.00 | 0.00 | 0.00 | 43 | 1013.4 |
| 20260906200412 | 99 | 158 | 1.7 | 1.7 | 0.00 | 0.00 | 0.00 | 45 | 1013.4 |
| 20260906195911 | 98 | 175 | 0.9 | 1.7 | 0.00 | 0.00 | 0.00 | 45 | 1013.3 |
| 20260906195408 | 99 | 129 | 0.0 | 0.0 | 0.00 | 0.00 | 0.00 | 45 | 1013.5 |
| 20260906194904 | 99 | 192 | 1.7 | 1.7 | 0.00 | 0.00 | 0.00 | 44 | 1013.7 |
| 20260906194359 | 100 | 173 | 0.0 | 0.9 | 0.00 | 0.00 | 0.00 | 44 | 1013.5 |
| 20260906193854 | 99 | 159 | 2.6 | 5.2 | 0.00 | 0.00 | 0.00 | 45 | 1013.7 |
| 20260906193349 | 99 | 195 | 0.9 | 0.9 | 0.00 | 0.00 | 0.00 | 46 | 1013.7 |
| 20260906192845 | 99 | 196 | 1.7 | 1.7 | 0.00 | 0.00 | 0.00 | 46 | 1013.6 |
| 20260906192339 | 99 | 151 | 2.6 | 4.3 | 0.00 | 0.00 | 0.00 | 45 | 1013.8 |
| 20260906191839 | 99 | 194 | 3.5 | 7.0 | 0.00 | 0.00 | 0.00 | 46 | 1014.0 |
| 20260906191338 | 99 | 345 | 2.6 | 4.3 | 0.00 | 0.00 | 0.00 | 46 | 1013.9 |
| 20260906190833 | 99 | 168 | 2.6 | 2.6 | 0.00 | 0.00 | 0.00 | 47 | 1014.1 |
| 20260906190332 | 99 | 191 | 4.3 | 7.0 | 0.00 | 0.00 | 0.00 | 48 | 1014.3 |
| 20260906185827 | 97 | 120 | 0.0 | 0.0 | 0.00 | 0.00 | 0.00 | 49 | 1014.3 |
| 20260906185326 | 98 | 48 | 0.0 | 0.9 | 0.00 | 0.00 | 0.00 | 47 | 1014.4 |
| 20260906184821 | 98 | 48 | 1.7 | 4.3 | 0.00 | 0.00 | 0.00 | 48 | 1014.5 |
| 20260906184316 | 99 | 213 | 0.9 | 1.7 | 0.00 | 0.00 | 0.00 | 47 | 1014.3 |
| 20260906183811 | 98 | 182 | 1.7 | 2.6 | 0.00 | 0.00 | 0.00 | 48 | 1014.5 |
| 20260906183308 | 98 | 154 | 5.2 | 7.0 | 0.00 | 0.00 | 0.00 | 48 | 1014.5 |
| 20260906182807 | 97 | 123 | 1.7 | 1.7 | 0.00 | 0.00 | 0.00 | 50 | 1014.5 |
| 20260906182306 | 98 | 209 | 1.7 | 1.7 | 0.00 | 0.00 | 0.00 | 50 | 1014.6 |
| 20260906181758 | 96 | 63 | 1.7 | 2.6 | 0.00 | 0.00 | 0.00 | 51 | 1014.8 |
| 20260906181254 | 97 | 188 | 2.6 | 2.6 | 0.00 | 0.00 | 0.00 | 52 | 1015.0 |
| 20260906180754 | 98 | 136 | 0.9 | 1.7 | 0.00 | 0.00 | 0.00 | 51 | 1015.0 |
| 20260906180249 | 97 | 206 | 0.9 | 1.7 | 0.00 | 0.00 | 0.00 | 52 | 1014.9 |
| 20260906175747 | 96 | 128 | 0.0 | 0.9 | 0.00 | 0.00 | 0.00 | 53 | 1015.0 |
| 20260906175243 | 96 | 111 | 0.9 | 0.9 | 0.00 | 0.00 | 0.00 | 54 | 1015.3 |
| 20260906174741 | 97 | 103 | 0.9 | 0.9 | 0.00 | 0.00 | 0.00 | 52 | 1015.2 |
| 20260906174240 | 97 | 100 | 0.0 | 0.9 | 0.00 | 0.00 | 0.00 | 52 | 1015.4 |
| 20260906173736 | 96 | 199 | 0.0 | 0.9 | 0.00 | 0.00 | 0.00 | 54 | 1015.4 |
| 20260906173232 | 96 | 207 | 0.0 | 0.0 | 0.00 | 0.00 | 0.00 | 54 | 1015.5 |
| 20260906172731 | 95 | 173 | 2.6 | 5.2 | 0.00 | 0.00 | 0.00 | 55 | 1015.7 |
| 20260906172227 | 95 | 165 | 2.6 | 4.3 | 0.00 | 0.00 | 0.00 | 57 | 1015.4 |
| 20260906171726 | 94 | 203 | 3.5 | 5.2 | 0.00 | 0.00 | 0.00 | 56 | 1015.6 |
| 20260906171222 | 94 | 63 | 3.5 | 4.3 | 0.00 | 0.00 | 0.00 | 56 | 1015.8 |
| 20260906170712 | 95 | 190 | 3.5 | 5.2 | 0.00 | 0.00 | 0.00 | 56 | 1015.9 |
| 20260906170212 | 94 | 200 | 1.7 | 2.6 | 0.00 | 0.00 | 0.00 | 56 | 1015.8 |
| 20260906165709 | 94 | 160 | 1.7 | 4.3 | 0.00 | 0.00 | 0.00 | 56 | 1015.8 |
| 20260906165204 | 94 | 106 | 3.5 | 4.3 | 0.00 | 0.00 | 0.00 | 56 | 1015.8 |
| 20260906164702 | 94 | 118 | 0.9 | 0.9 | 0.00 | 0.00 | 0.00 | 58 | 1015.9 |
| 20260906164158 | 93 | 170 | 2.6 | 4.3 | 0.00 | 0.00 | 0.00 | 58 | 1016.1 |
| 20260906163654 | 93 | 115 | 1.7 | 1.7 | 0.00 | 0.00 | 0.00 | 58 | 1016.2 |
| 20260906163150 | 93 | 84 | 1.7 | 2.6 | 0.00 | 0.00 | 0.00 | 59 | 1016.0 |
| 20260906162647 | 94 | 172 | 1.7 | 1.7 | 0.00 | 0.00 | 0.00 | 56 | 1016.0 |
| 20260906162146 | 94 | 72 | 0.9 | 0.9 | 0.00 | 0.00 | 0.00 | 59 | 1015.9 |
| 20260906161641 | 92 | 151 | 0.0 | 0.9 | 0.00 | 0.00 | 0.00 | 61 | 1016.0 |
| 20260906161140 | 92 | 175 | 0.0 | 0.9 | 0.00 | 0.00 | 0.00 | 62 | 1015.9 |
| 20260906160638 | 91 | 190 | 3.5 | 5.2 | 0.00 | 0.00 | 0.00 | 65 | 1015.9 |
| 20260906160133 | 92 | 100 | 0.9 | 1.7 | 0.00 | 0.00 | 0.00 | 64 | 1015.9 |
| 20260906155630 | 91 | 113 | 0.9 | 0.9 | 0.00 | 0.00 | 0.00 | 66 | 1016.2 |
| 20260906155126 | 91 | 187 | 0.0 | 0.9 | 0.00 | 0.00 | 0.00 | 66 | 1016.0 |
| 20260906154621 | 91 | 176 | 0.0 | 0.0 | 0.00 | 0.00 | 0.00 | 68 | 1016.0 |
| 20260906154120 | 91 | 163 | 0.0 | 0.0 | 0.00 | 0.00 | 0.00 | 68 | 1016.0 |
| 20260906153619 | 90 | 198 | 0.9 | 0.9 | 0.00 | 0.00 | 0.00 | 69 | 1016.0 |
| 20260906153115 | 90 | 162 | 0.9 | 0.9 | 0.00 | 0.00 | 0.00 | 70 | 1015.6 |
| 20260906152614 | 89 | 179 | 0.9 | 0.9 | 0.00 | 0.00 | 0.00 | 70 | 1015.7 |
| 20260906152109 | 89 | 116 | 0.9 | 0.9 | 0.00 | 0.00 | 0.00 | 71 | 1015.7 |
| 20260906151604 | 89 | 181 | 0.9 | 1.7 | 0.00 | 0.00 | 0.00 | 73 | 1015.8 |
| 20260906151100 | 88 | 85 | 0.0 | 0.9 | 0.00 | 0.00 | 0.00 | 75 | 1015.9 |
| 20260906150555 | 88 | 187 | 1.7 | 1.7 | 0.00 | 0.00 | 0.00 | 76 | 1015.7 |
| 20260906150050 | 88 | 150 | 0.9 | 0.9 | 0.00 | 0.00 | 0.00 | 75 | 1015.8 |
| 20260906145549 | 87 | 200 | 0.0 | 0.0 | 0.00 | 0.00 | 0.00 | 77 | 1015.9 |
| 20260906145044 | 87 | 127 | 0.9 | 1.7 | 0.00 | 0.00 | 0.00 | 76 | 1015.6 |
| 20260906144538 | 86 | 41 | 0.9 | 0.9 | 0.00 | 0.00 | 0.00 | 77 | 1015.7 |
| 20260906144034 | 85 | 186 | 0.0 | 0.9 | 0.00 | 0.00 | 0.00 | 78 | 1015.6 |
| 20260906143528 | 86 | 192 | 0.0 | 0.0 | 0.00 | 0.00 | 0.00 | 78 | 1015.8 |
| 20260906143025 | 86 | 189 | 0.0 | 0.0 | 0.00 | 0.00 | 0.00 | 77 | 1015.7 |
| 20260906142519 | 85 | 191 | 0.0 | 0.0 | 0.00 | 0.00 | 0.00 | 79 | 1015.8 |
| 20260906142015 | 85 | 155 | 2.6 | 2.6 | 0.00 | 0.00 | 0.00 | 79 | 1015.9 |
| 20260906141513 | 84 | 193 | 0.9 | 0.9 | 0.00 | 0.00 | 0.00 | 80 | 1015.8 |
| 20260906141009 | 83 | 120 | 0.9 | 1.7 | 0.00 | 0.00 | 0.00 | 81 | 1015.8 |
| 20260906140503 | 83 | 177 | 0.9 | 0.9 | 0.00 | 0.00 | 0.00 | 83 | 1015.9 |
| 20260906140002 | 83 | 134 | 0.9 | 1.7 | 0.00 | 0.00 | 0.00 | 83 | 1015.8 |
| 20260906135500 | 82 | 180 | 0.9 | 0.9 | 0.00 | 0.00 | 0.00 | 83 | 1015.7 |
| 20260906134955 | 82 | 173 | 0.9 | 0.9 | 0.00 | 0.00 | 0.00 | 85 | 1015.7 |
| 20260906134451 | 80 | 191 | 0.9 | 0.9 | 0.00 | 0.00 | 0.00 | 87 | 1015.4 |
| 20260906133951 | 80 | 112 | 0.0 | 0.9 | 0.00 | 0.00 | 0.00 | 88 | 1015.6 |
| 20260906133446 | 80 | 187 | 0.0 | 0.9 | 0.00 | 0.00 | 0.00 | 88 | 1015.7 |
| 20260906132942 | 80 | 198 | 0.0 | 0.0 | 0.00 | 0.00 | 0.00 | 88 | 1015.6 |
| 20260906132437 | 79 | 185 | 0.9 | 0.9 | 0.00 | 0.00 | 0.00 | 88 | 1015.5 |
| 20260906131932 | 79 | 172 | 0.0 | 0.0 | 0.00 | 0.00 | 0.00 | 89 | 1015.5 |
| 20260906131428 | 79 | 191 | 0.0 | 0.0 | 0.00 | 0.00 | 0.00 | 90 | 1015.6 |
| 20260906130923 | 78 | 197 | 0.0 | 0.0 | 0.00 | 0.00 | 0.00 | 91 | 1015.6 |
| 20260906130423 | 78 | 193 | 0.0 | 0.9 | 0.00 | 0.00 | 0.00 | 91 | 1015.3 |
| 20260906125923 | 78 | 189 | 0.0 | 0.9 | 0.00 | 0.00 | 0.00 | 92 | 1015.7 |
| 20260906125420 | 78 | 199 | 0.0 | 0.0 | 0.00 | 0.00 | 0.00 | 93 | 1015.5 |
| 20260906124914 | 77 | 191 | 0.0 | 0.9 | 0.00 | 0.00 | 0.00 | 93 | 1015.3 |
| 20260906124410 | 77 | 204 | 0.0 | 0.0 | 0.00 | 0.00 | 0.00 | 93 | 1015.2 |
| 20260906123910 | 77 | 203 | 0.0 | 0.0 | 0.00 | 0.00 | 0.00 | 93 | 1015.2 |
| 20260906123404 | 77 | 202 | 0.0 | 0.0 | 0.00 | 0.00 | 0.00 | 93 | 1015.0 |
| 20260906122904 | 77 | 205 | 0.0 | 0.0 | 0.00 | 0.00 | 0.00 | 93 | 1015.2 |
| 20260906122359 | 77 | 207 | 0.0 | 0.0 | 0.00 | 0.00 | 0.00 | 93 | 1015.2 |
| 20260906121855 | 77 | 208 | 0.0 | 0.0 | 0.00 | 0.00 | 0.00 | 93 | 1015.1 |
| 20260906121351 | 77 | 205 | 0.0 | 0.0 | 0.00 | 0.00 | 0.00 | 93 | 1015.2 |
| 20260906120847 | 77 | 184 | 0.0 | 0.9 | 0.00 | 0.00 | 0.00 | 93 | 1014.8 |
| 20260906120343 | 77 | 191 | 1.7 | 1.7 | 0.00 | 0.00 | 0.00 | 93 | 1015.0 |
| 20260906115839 | 77 | 201 | 0.0 | 0.0 | 0.00 | 0.00 | 0.00 | 93 | 1015.0 |
| 20260906115334 | 77 | 200 | 0.0 | 0.0 | 0.00 | 0.00 | 0.00 | 93 | 1015.1 |
| 20260906114833 | 77 | 202 | 0.9 | 0.9 | 0.00 | 0.00 | 0.00 | 93 | 1014.9 |
| 20260906114329 | 77 | 194 | 0.9 | 0.9 | 0.00 | 0.00 | 0.00 | 93 | 1014.9 |
| 20260906113824 | 77 | 195 | 0.0 | 0.0 | 0.00 | 0.00 | 0.00 | 93 | 1014.8 |
| 20260906113323 | 77 | 173 | 0.9 | 0.9 | 0.00 | 0.00 | 0.00 | 93 | 1014.8 |
| 20260906112818 | 78 | 198 | 0.0 | 0.0 | 0.00 | 0.00 | 0.00 | 93 | 1014.9 |
| 20260906112315 | 78 | 202 | 0.0 | 0.0 | 0.00 | 0.00 | 0.00 | 93 | 1014.7 |
| 20260906111814 | 78 | 204 | 0.0 | 0.0 | 0.00 | 0.00 | 0.00 | 93 | 1014.9 |
| 20260906111308 | 78 | 206 | 0.0 | 0.0 | 0.00 | 0.00 | 0.00 | 93 | 1014.8 |
| 20260906110803 | 78 | 204 | 0.0 | 0.0 | 0.00 | 0.00 | 0.00 | 92 | 1014.7 |
| 20260906110259 | 78 | 201 | 0.0 | 0.0 | 0.00 | 0.00 | 0.00 | 92 | 1014.7 |
| 20260906105758 | 78 | 192 | 0.9 | 0.9 | 0.00 | 0.00 | 0.00 | 92 | 1014.6 |
| 20260906105254 | 78 | 198 | 0.0 | 0.0 | 0.00 | 0.00 | 0.00 | 92 | 1014.6 |
| 20260906104749 | 78 | 202 | 0.0 | 0.0 | 0.00 | 0.00 | 0.00 | 92 | 1014.5 |
| 20260906104248 | 78 | 184 | 0.0 | 0.0 | 0.00 | 0.00 | 0.00 | 92 | 1014.6 |
| 20260906103746 | 78 | 193 | 0.0 | 0.0 | 0.00 | 0.00 | 0.00 | 91 | 1014.6 |
| 20260906103245 | 78 | 178 | 0.0 | 0.0 | 0.00 | 0.00 | 0.00 | 91 | 1014.4 |
| 20260906102741 | 78 | 193 | 0.0 | 0.0 | 0.00 | 0.00 | 0.00 | 91 | 1014.6 |
| 20260906102234 | 78 | 192 | 0.0 | 0.0 | 0.00 | 0.00 | 0.00 | 91 | 1014.5 |
| 20260906101730 | 78 | 200 | 0.0 | 0.0 | 0.00 | 0.00 | 0.00 | 90 | 1014.1 |
| 20260906101225 | 78 | 200 | 0.0 | 0.0 | 0.00 | 0.00 | 0.00 | 90 | 1014.3 |
| 20260906100720 | 78 | 200 | 0.0 | 0.0 | 0.00 | 0.00 | 0.00 | 90 | 1014.5 |
| 20260906100220 | 79 | 196 | 0.0 | 0.0 | 0.00 | 0.00 | 0.00 | 89 | 1014.3 |
| 20260906095721 | 79 | 191 | 0.0 | 0.0 | 0.00 | 0.00 | 0.00 | 89 | 1014.3 |
| 20260906095216 | 79 | 199 | 0.0 | 0.0 | 0.00 | 0.00 | 0.00 | 89 | 1014.1 |
| 20260906094714 | 79 | 192 | 0.0 | 0.0 | 0.00 | 0.00 | 0.00 | 88 | 1014.0 |
| 20260906094210 | 79 | 194 | 0.0 | 0.0 | 0.00 | 0.00 | 0.00 | 88 | 1013.9 |
| 20260906093707 | 79 | 195 | 0.0 | 0.0 | 0.00 | 0.00 | 0.00 | 88 | 1013.9 |
| 20260906093201 | 79 | 204 | 0.0 | 0.0 | 0.00 | 0.00 | 0.00 | 88 | 1013.9 |
| 20260906092656 | 79 | 207 | 0.0 | 0.9 | 0.00 | 0.00 | 0.00 | 88 | 1013.9 |
| 20260906092150 | 79 | 199 | 0.0 | 0.0 | 0.00 | 0.00 | 0.00 | 88 | 1013.5 |
| 20260906091647 | 79 | 201 | 0.0 | 0.0 | 0.00 | 0.00 | 0.00 | 87 | 1013.8 |
| 20260906091143 | 79 | 191 | 0.0 | 0.0 | 0.00 | 0.00 | 0.00 | 87 | 1013.8 |
| 20260906090638 | 80 | 192 | 0.0 | 0.0 | 0.00 | 0.00 | 0.00 | 87 | 1013.6 |
| 20260906090132 | 80 | 198 | 0.0 | 0.0 | 0.00 | 0.00 | 0.00 | 87 | 1013.6 |
| 20260906085631 | 80 | 201 | 0.0 | 0.0 | 0.00 | 0.00 | 0.00 | 86 | 1013.6 |
| 20260906085126 | 80 | 185 | 0.9 | 1.7 | 0.00 | 0.00 | 0.00 | 86 | 1013.5 |
| 20260906084626 | 80 | 208 | 0.0 | 0.9 | 0.00 | 0.00 | 0.00 | 86 | 1013.6 |
| 20260906084124 | 80 | 196 | 0.9 | 1.7 | 0.00 | 0.00 | 0.00 | 86 | 1013.6 |
| 20260906083620 | 80 | 203 | 1.7 | 1.7 | 0.00 | 0.00 | 0.00 | 86 | 1013.6 |
| 20260906083115 | 80 | 203 | 0.9 | 1.7 | 0.00 | 0.00 | 0.00 | 85 | 1013.6 |
| 20260906082610 | 80 | 202 | 0.0 | 0.9 | 0.00 | 0.00 | 0.00 | 85 | 1013.4 |
| 20260906082106 | 80 | 211 | 1.7 | 1.7 | 0.00 | 0.00 | 0.00 | 85 | 1013.8 |
| 20260906081602 | 80 | 172 | 0.9 | 0.9 | 0.00 | 0.00 | 0.00 | 85 | 1013.8 |
| 20260906081057 | 80 | 179 | 1.7 | 1.7 | 0.00 | 0.00 | 0.00 | 85 | 1013.9 |
| 20260906080553 | 80 | 194 | 0.9 | 0.9 | 0.00 | 0.00 | 0.00 | 85 | 1013.8 |
| 20260906080049 | 81 | 201 | 0.0 | 0.0 | 0.00 | 0.00 | 0.00 | 85 | 1014.1 |
| 20260906075543 | 81 | 194 | 0.9 | 0.9 | 0.00 | 0.00 | 0.00 | 84 | 1013.9 |
| 20260906075038 | 81 | 184 | 0.9 | 0.9 | 0.00 | 0.00 | 0.00 | 84 | 1013.8 |
| 20260906074533 | 81 | 201 | 0.0 | 0.9 | 0.00 | 0.00 | 0.00 | 84 | 1013.8 |
| 20260906074031 | 81 | 196 | 0.9 | 0.9 | 0.00 | 0.00 | 0.00 | 83 | 1013.8 |
| 20260906073526 | 81 | 195 | 0.9 | 0.9 | 0.00 | 0.00 | 0.00 | 83 | 1014.0 |
| 20260906073023 | 81 | 204 | 0.0 | 0.9 | 0.00 | 0.00 | 0.00 | 83 | 1013.9 |
| 20260906072517 | 81 | 169 | 0.9 | 0.9 | 0.00 | 0.00 | 0.00 | 83 | 1013.7 |
| 20260906072014 | 81 | 208 | 0.0 | 0.0 | 0.00 | 0.00 | 0.00 | 82 | 1014.0 |
| 20260906071509 | 81 | 195 | 0.0 | 0.0 | 0.00 | 0.00 | 0.00 | 82 | 1013.9 |
| 20260906071004 | 81 | 197 | 1.7 | 1.7 | 0.00 | 0.00 | 0.00 | 82 | 1013.8 |
| 20260906070500 | 81 | 179 | 0.9 | 0.9 | 0.00 | 0.00 | 0.00 | 82 | 1014.0 |
| 20260906065956 | 81 | 206 | 0.0 | 0.0 | 0.00 | 0.00 | 0.00 | 82 | 1013.8 |
| 20260906065455 | 81 | 199 | 0.0 | 0.0 | 0.00 | 0.00 | 0.00 | 82 | 1013.9 |
| 20260906064951 | 82 | 203 | 0.0 | 0.0 | 0.00 | 0.00 | 0.00 | 81 | 1013.9 |
| 20260906064447 | 82 | 179 | 1.7 | 1.7 | 0.00 | 0.00 | 0.00 | 81 | 1013.9 |
| 20260906063942 | 82 | 197 | 0.9 | 0.9 | 0.00 | 0.00 | 0.00 | 81 | 1013.8 |
| 20260906063438 | 82 | 189 | 1.7 | 2.6 | 0.00 | 0.00 | 0.00 | 81 | 1014.1 |
| 20260906062937 | 82 | 194 | 0.0 | 0.9 | 0.00 | 0.00 | 0.00 | 81 | 1014.0 |
| 20260906062433 | 82 | 196 | 1.7 | 1.7 | 0.00 | 0.00 | 0.00 | 80 | 1014.3 |
| 20260906061927 | 82 | 215 | 0.9 | 1.7 | 0.00 | 0.00 | 0.00 | 80 | 1013.9 |
| 20260906061424 | 82 | 183 | 1.7 | 1.7 | 0.00 | 0.00 | 0.00 | 80 | 1014.0 |
| 20260906060918 | 82 | 178 | 0.9 | 1.7 | 0.00 | 0.00 | 0.00 | 79 | 1014.4 |
| 20260906060415 | 82 | 206 | 1.7 | 2.6 | 0.00 | 0.00 | 0.00 | 78 | 1014.3 |
| 20260906055911 | 82 | 203 | 0.0 | 0.9 | 0.00 | 0.00 | 0.00 | 78 | 1014.3 |
| 20260906055407 | 83 | 209 | 0.9 | 0.9 | 0.00 | 0.00 | 0.00 | 77 | 1014.3 |
| 20260906054902 | 83 | 154 | 0.9 | 0.9 | 0.00 | 0.00 | 0.00 | 77 | 1014.5 |
| 20260906054356 | 83 | 181 | 0.9 | 0.9 | 0.00 | 0.00 | 0.00 | 77 | 1014.0 |
| 20260906053853 | 83 | 201 | 2.6 | 4.3 | 0.00 | 0.00 | 0.00 | 76 | 1014.3 |
| 20260906053348 | 83 | 192 | 0.9 | 1.7 | 0.00 | 0.00 | 0.00 | 76 | 1014.1 |
| 20260906052844 | 83 | 157 | 1.7 | 1.7 | 0.00 | 0.00 | 0.00 | 76 | 1014.0 |
| 20260906052340 | 83 | 191 | 0.0 | 0.9 | 0.00 | 0.00 | 0.00 | 76 | 1014.0 |
| 20260906051837 | 84 | 193 | 1.7 | 2.6 | 0.00 | 0.00 | 0.00 | 75 | 1013.9 |
| 20260906051336 | 84 | 206 | 0.9 | 1.7 | 0.00 | 0.00 | 0.00 | 75 | 1014.1 |
| 20260906050832 | 84 | 197 | 0.9 | 1.7 | 0.00 | 0.00 | 0.00 | 74 | 1014.4 |
| 20260906050327 | 84 | 177 | 0.9 | 1.7 | 0.00 | 0.00 | 0.00 | 74 | 1014.3 |
| 20260906045826 | 84 | 209 | 1.7 | 1.7 | 0.00 | 0.00 | 0.00 | 73 | 1013.8 |
| 20260906045320 | 84 | 178 | 3.5 | 4.3 | 0.00 | 0.00 | 0.00 | 73 | 1013.6 |
| 20260906044817 | 84 | 201 | 1.7 | 1.7 | 0.00 | 0.00 | 0.00 | 73 | 1013.8 |
| 20260906044317 | 84 | 183 | 0.9 | 0.9 | 0.00 | 0.00 | 0.00 | 73 | 1013.8 |
| 20260906043813 | 84 | 217 | 0.9 | 1.7 | 0.00 | 0.00 | 0.00 | 73 | 1013.8 |
| 20260906043308 | 84 | 175 | 1.7 | 1.7 | 0.00 | 0.00 | 0.00 | 73 | 1013.9 |
| 20260906042803 | 84 | 198 | 0.9 | 0.9 | 0.00 | 0.00 | 0.00 | 72 | 1014.0 |
| 20260906042306 | 85 | 201 | 2.6 | 4.3 | 0.00 | 0.00 | 0.00 | 72 | 1014.1 |
| 20260906041757 | 85 | 192 | 1.7 | 2.6 | 0.00 | 0.00 | 0.00 | 72 | 1013.9 |
| 20260906041252 | 85 | 194 | 0.9 | 1.7 | 0.00 | 0.00 | 0.00 | 72 | 1014.3 |
| 20260906040748 | 85 | 170 | 0.0 | 0.0 | 0.00 | 0.00 | 0.00 | 72 | 1014.0 |
| 20260906040243 | 85 | 194 | 0.0 | 0.9 | 0.00 | 0.00 | 0.00 | 72 | 1014.3 |
| 20260906035738 | 85 | 188 | 0.9 | 1.7 | 0.00 | 0.00 | 0.00 | 71 | 1014.1 |
| 20260906035234 | 85 | 203 | 0.0 | 0.0 | 0.00 | 0.00 | 0.00 | 71 | 1014.1 |
| 20260906034734 | 85 | 171 | 1.7 | 2.6 | 0.00 | 0.00 | 0.00 | 71 | 1013.9 |
| 20260906034229 | 86 | 197 | 0.9 | 0.9 | 0.00 | 0.00 | 0.00 | 71 | 1013.9 |
| 20260906033725 | 86 | 199 | 0.0 | 0.0 | 0.00 | 0.00 | 0.00 | 71 | 1013.9 |
| 20260906033224 | 86 | 161 | 0.9 | 1.7 | 0.00 | 0.00 | 0.00 | 70 | 1014.0 |
| 20260906032721 | 86 | 196 | 0.0 | 0.0 | 0.00 | 0.00 | 0.00 | 71 | 1014.1 |
| 20260906032221 | 86 | 198 | 0.9 | 0.9 | 0.00 | 0.00 | 0.00 | 70 | 1013.9 |
| 20260906031716 | 86 | 197 | 0.9 | 0.9 | 0.00 | 0.00 | 0.00 | 70 | 1014.1 |
| 20260906031212 | 86 | 162 | 1.7 | 1.7 | 0.00 | 0.00 | 0.00 | 70 | 1013.8 |
| 20260906030711 | 86 | 197 | 0.9 | 1.7 | 0.00 | 0.00 | 0.00 | 70 | 1013.6 |
| 20260906030206 | 86 | 191 | 2.6 | 2.6 | 0.00 | 0.00 | 0.00 | 69 | 1014.0 |
| 20260906025706 | 86 | 167 | 3.5 | 4.3 | 0.00 | 0.00 | 0.00 | 69 | 1014.0 |
| 20260906025200 | 86 | 199 | 1.7 | 2.6 | 0.00 | 0.00 | 0.00 | 69 | 1013.9 |
| 20260906024654 | 86 | 202 | 1.7 | 1.7 | 0.00 | 0.00 | 0.00 | 69 | 1014.0 |
| 20260906024153 | 86 | 198 | 0.9 | 0.9 | 0.00 | 0.00 | 0.00 | 69 | 1014.0 |
| 20260906023650 | 86 | 210 | 0.9 | 0.9 | 0.00 | 0.00 | 0.00 | 69 | 1013.8 |
| 20260906023150 | 87 | 192 | 0.9 | 0.9 | 0.00 | 0.00 | 0.00 | 69 | 1013.8 |
| 20260906022644 | 87 | 187 | 0.9 | 0.9 | 0.00 | 0.00 | 0.00 | 69 | 1013.8 |
| 20260906022140 | 87 | 187 | 0.9 | 1.7 | 0.00 | 0.00 | 0.00 | 69 | 1013.5 |
| 20260906021636 | 87 | 209 | 2.6 | 2.6 | 0.00 | 0.00 | 0.00 | 69 | 1013.5 |
| 20260906021134 | 87 | 155 | 1.7 | 1.7 | 0.00 | 0.00 | 0.00 | 68 | 1013.4 |
| 20260906020629 | 87 | 200 | 2.6 | 4.3 | 0.00 | 0.00 | 0.00 | 68 | 1013.3 |
| 20260906020124 | 87 | 178 | 0.9 | 0.9 | 0.00 | 0.00 | 0.00 | 67 | 1013.1 |
| 20260906015618 | 87 | 194 | 0.9 | 1.7 | 0.00 | 0.00 | 0.00 | 67 | 1013.1 |
| 20260906015116 | 87 | 167 | 1.7 | 2.6 | 0.00 | 0.00 | 0.00 | 66 | 1013.2 |
| 20260906014612 | 87 | 168 | 1.7 | 4.3 | 0.00 | 0.00 | 0.00 | 66 | 1013.2 |
| 20260906014108 | 87 | 203 | 1.7 | 2.6 | 0.00 | 0.00 | 0.00 | 66 | 1013.1 |
| 20260906013603 | 87 | 194 | 0.9 | 1.7 | 0.00 | 0.00 | 0.00 | 65 | 1012.9 |
| 20260906013058 | 88 | 207 | 1.7 | 2.6 | 0.00 | 0.00 | 0.00 | 65 | 1012.7 |
| 20260906012553 | 88 | 181 | 1.7 | 2.6 | 0.00 | 0.00 | 0.00 | 64 | 1012.7 |
| 20260906012053 | 88 | 108 | 1.7 | 2.6 | 0.00 | 0.00 | 0.00 | 64 | 1013.0 |
| 20260906011549 | 88 | 124 | 0.9 | 1.7 | 0.00 | 0.00 | 0.00 | 63 | 1012.6 |
| 20260906011049 | 88 | 195 | 0.9 | 1.7 | 0.00 | 0.00 | 0.00 | 63 | 1012.5 |
| 20260906010544 | 88 | 207 | 1.7 | 1.7 | 0.00 | 0.00 | 0.00 | 62 | 1012.5 |
| 20260906010041 | 89 | 153 | 0.9 | 1.7 | 0.00 | 0.00 | 0.00 | 62 | 1012.6 |
| 20260906005540 | 89 | 201 | 5.2 | 7.0 | 0.00 | 0.00 | 0.00 | 62 | 1012.7 |
| 20260906005039 | 90 | 196 | 1.7 | 1.7 | 0.00 | 0.00 | 0.00 | 61 | 1012.7 |
| 20260906004538 | 91 | 169 | 2.6 | 2.6 | 0.00 | 0.00 | 0.00 | 58 | 1012.6 |
| 20260906004033 | 92 | 128 | 5.2 | 7.0 | 0.00 | 0.00 | 0.00 | 56 | 1012.3 |
| 20260906003528 | 93 | 149 | 3.5 | 6.1 | 0.00 | 0.00 | 0.00 | 54 | 1012.4 |
| 20260906003024 | 93 | 93 | 2.6 | 2.6 | 0.00 | 0.00 | 0.00 | 54 | 1012.4 |
| 20260906002519 | 94 | 190 | 2.6 | 2.6 | 0.00 | 0.00 | 0.00 | 53 | 1012.3 |
| 20260906002014 | 94 | 201 | 2.6 | 5.2 | 0.00 | 0.00 | 0.00 | 53 | 1012.3 |
| 20260906001510 | 95 | 162 | 2.6 | 4.3 | 0.00 | 0.00 | 0.00 | 52 | 1012.2 |
| 20260906001004 | 96 | 178 | 2.6 | 4.3 | 0.00 | 0.00 | 0.00 | 51 | 1012.1 |
| 20260906000500 | 97 | 110 | 4.3 | 6.1 | 0.00 | 0.00 | 0.00 | 47 | 1012.1 |
| 20260905235954 | 97 | 141 | 0.9 | 1.7 | 0.00 | 0.00 | 0.00 | 46 | 1012.1 |
| 20260905235454 | 97 | 175 | 2.6 | 2.6 | 0.00 | 0.00 | 0.00 | 46 | 1012.0 |
| 20260905234949 | 98 | 199 | 0.9 | 0.9 | 0.00 | 0.00 | 0.00 | 45 | 1011.9 |
| 20260905234444 | 98 | 142 | 0.9 | 1.7 | 0.00 | 0.00 | 0.00 | 45 | 1011.6 |
| 20260905233938 | 98 | 196 | 0.9 | 0.9 | 0.00 | 0.00 | 0.00 | 45 | 1011.8 |
| 20260905233434 | 98 | 199 | 0.9 | 0.9 | 0.00 | 0.00 | 0.00 | 45 | 1011.6 |
| 20260905232932 | 98 | 189 | 0.9 | 0.9 | 0.00 | 0.00 | 0.00 | 45 | 1011.7 |
| 20260905232429 | 98 | 49 | 1.7 | 2.6 | 0.00 | 0.00 | 0.00 | 45 | 1011.5 |
| 20260905231924 | 98 | 85 | 0.9 | 0.9 | 0.00 | 0.00 | 0.00 | 45 | 1011.7 |
| 20260905231420 | 98 | 235 | 0.9 | 1.7 | 0.00 | 0.00 | 0.00 | 45 | 1011.9 |
| 20260905230916 | 98 | 149 | 0.0 | 0.9 | 0.00 | 0.00 | 0.00 | 45 | 1011.7 |
| 20260905230415 | 99 | 241 | 3.5 | 4.3 | 0.00 | 0.00 | 0.00 | 44 | 1012.0 |
| 20260905225913 | 99 | 161 | 1.7 | 1.7 | 0.00 | 0.00 | 0.00 | 43 | 1011.9 |